Flag for Gambia Weather past 2 weeks in Serekunda, Gambia

Now
70 °F

Clear.


Feels Like: 70 °F
Forecast: 67 / 89 °F
Wind: 6 mph from Northeast

Location: Banjul / Yundum

Current Time: Mar 3, 2015 at 5:15:29 AM

Latest Report: Mar 3, 2015 at 4:00 AM


Visibility: 10 mi

Pressure: 29.83 "Hg

Humidity: 57%

Dew point: 54 °F

Location of SerekundaLocation

Historic Weather in Serekunda — Graph

°F

Serekunda temperature yesterday

Maximum temperature yesterday: 99 °F (at 3:00 PM)
Minimum temperature yesterday: 66 °F (at 5:00 AM)
Average temperature yesterday: 81 °F

Past Weeks' High & Low Weather Summary

 TemperatureHumidityPressure
High99 °F (Feb 16, 5:00 PM)83% (Feb 19, 4:00 AM)29.98 "Hg (Feb 19, 4:00 AM)
Low63 °F (Feb 21, 4:00 AM)5% (Feb 27, 12:00 PM)29.71 "Hg (Feb 26, 5:00 PM)
Average78 °F37%29.86 "Hg
* Reported Feb 16 4:00 AM — Mar 3 4:00 AM, Serekunda, Weather by CustomWeather, © 2015

Note: Actual official high and low records may vary slightly from our data, if they occured in-between our weather recording intervals... More about our weather records

Advertising

Serekunda weather history for previous 24 hours

 ConditionsComfort  
Time TempWeatherWind HumidityBarometerVisibility
4:00 AM
Tue, Mar 3
70 °FClear.6 mph57%29.83 "Hg10 mi
3:00 AM68 °FClear.No wind53%29.83 "Hg10 mi
2:00 AM70 °FClear.No wind57%29.83 "Hg10 mi
1:00 AM72 °FClear.7 mph50%29.83 "Hg10 mi
12:00 AM73 °FClear.6 mph47%29.86 "Hg10 mi
11:00 PM
Mon, Mar 2
75 °FClear.6 mph44%29.83 "Hg10 mi
10:00 PM77 °FClear.6 mph36%29.83 "Hg10 mi
9:00 PM77 °FClear.7 mph30%29.80 "Hg10 mi
8:00 PM84 °FClear.10 mph22%29.77 "Hg10 mi
7:00 PM91 °FSunny.6 mph10%29.77 "Hg10 mi
6:00 PM97 °FSunny.No wind9%29.74 "Hg10 mi
5:00 PM97 °FSunny.9 mph6%29.74 "Hg10 mi
4:00 PM97 °FSunny.9 mph6%29.74 "Hg10 mi
3:00 PM99 °FSunny.10 mph7%29.77 "Hg10 mi
2:00 PM95 °FSunny.12 mph6%29.83 "Hg10 mi
1:00 PM93 °FSunny.17 mph10%29.86 "Hg10 mi
11:00 AM86 °FSunny.15 mph13%29.89 "Hg10 mi
10:00 AM82 °FSunny.14 mph11%29.89 "Hg10 mi
9:00 AM72 °FSunny.12 mph22%29.89 "Hg6 mi
8:00 AM68 °FSunny.12 mph30%29.89 "Hg6 mi
7:00 AM66 °FClear.9 mph40%29.89 "Hg5 mi
6:00 AM68 °FClear.8 mph49%29.89 "Hg5 mi
5:00 AM66 °FClear.7 mph52%29.89 "Hg5 mi
Weather by CustomWeather, © 2015

See weather overviewHow to use our weather pages